User: anonymous   Login
Location: Knowlton
(51.2333°N, 1.2667°E)
Time: 09:29:49
(UTC+00:00)
Language:

CRYOSAT 2 - Orbit

View from above orbital plane
View from above orbital plane
View from above satellite
View from above satellite

Ground track
Ground track

The orbit data is extracted from the following two-line orbital elements,

1 36508U 10013A   21165.15314795  .00000003  00000-0 -81477-8 0  9996
2 36508  92.0114 195.0779 0008132  69.6969 290.5111 14.51910124592731
Epoch (UTC): 14 June 2021 03:40:31
Eccentricity: 0.0008132
inclination: 92.0114°
perigee height: 713 km
apogee height: 725 km
right ascension of ascending node: 195.0779°
argument of perigee: 69.6969°
revolutions per day: 14.51910124
mean anomaly at epoch: 290.5111°
orbit number at epoch: 59273

The dashed part of the orbit path shows where the satellite is in the earth's shadow,  

DLR